GW3011 Weather Reports


time (UTC)temp
C
wind
direction
speed
KPH
gust
KPH
rain 1hr
cm
rain 24hr
cm
rain mn
cm
humidity
%
barometer
mb
20260508164234 16 228 9.7 14.5 0.00 0.00 0.00 39 1011.4
20260508163732 16 189 6.4 11.3 0.00 0.00 0.00 39 1011.6
20260508163230 16 117 9.7 14.5 0.00 0.00 0.00 40 1011.6
20260508162725 16 221 11.3 17.7 0.00 0.00 0.00 39 1011.4
20260508162222 16 245 12.9 17.7 0.00 0.00 0.00 38 1011.4
20260508161719 17 160 11.3 20.9 0.00 0.00 0.00 37 1011.8
20260508161217 16 357 11.3 16.1 0.00 0.00 0.00 38 1011.8
20260508160714 16 255 8.0 11.3 0.00 0.00 0.00 40 1011.9
20260508160213 16 214 9.7 12.9 0.00 0.00 0.00 41 1011.7
20260508155709 16 194 9.7 17.7 0.00 0.00 0.00 41 1011.8
20260508155206 15 222 9.7 14.5 0.00 0.00 0.00 39 1011.9
20260508154703 16 215 6.4 11.3 0.00 0.00 0.00 40 1011.7
20260508154200 16 257 6.4 9.7 0.00 0.00 0.00 38 1011.8
20260508153656 16 179 8.0 9.7 0.00 0.00 0.00 39 1011.9
20260508153154 16 211 3.2 3.2 0.00 0.00 0.00 39 1011.7
20260508152650 16 288 4.8 6.4 0.00 0.00 0.00 39 1011.9
20260508152146 16 235 4.8 6.4 0.00 0.00 0.00 38 1011.8
20260508151642 16 248 3.2 4.8 0.00 0.00 0.00 38 1011.7
20260508151139 16 310 4.8 9.7 0.00 0.00 0.00 38 1011.8
20260508150636 15 265 6.4 6.4 0.00 0.00 0.00 40 1011.7
20260508150133 15 227 6.4 6.4 0.00 0.00 0.00 41 1011.8
20260508145629 15 275 4.8 6.4 0.00 0.00 0.00 42 1011.8
20260508145125 15 245 6.4 11.3 0.00 0.00 0.00 42 1012.0
20260508144623 16 212 8.0 9.7 0.00 0.00 0.00 42 1011.7
20260508144120 15 250 1.6 3.2 0.00 0.00 0.00 45 1011.9
20260508143618 15 218 3.2 4.8 0.00 0.00 0.00 43 1012.1
20260508143114 15 250 3.2 3.2 0.00 0.00 0.00 44 1012.0
20260508142611 15 276 4.8 4.8 0.00 0.00 0.00 49 1011.9
20260508142108 15 197 1.6 4.8 0.00 0.00 0.00 47 1011.9
20260508141604 14 289 1.6 3.2 0.00 0.00 0.00 49 1012.0
20260508141102 14 208 3.2 4.8 0.00 0.00 0.00 51 1012.1
20260508140559 13 237 6.4 6.4 0.00 0.00 0.00 52 1012.3
20260508140056 14 284 3.2 4.8 0.00 0.00 0.00 50 1012.1
20260508135551 13 196 6.4 9.7 0.00 0.00 0.00 53 1012.4
20260508135047 13 241 4.8 9.7 0.00 0.00 0.00 51 1012.1
20260508134544 13 244 3.2 6.4 0.00 0.00 0.00 52 1012.2
20260508134042 14 258 6.4 9.7 0.00 0.00 0.00 52 1012.0
20260508133538 13 294 1.6 1.6 0.00 0.00 0.00 52 1012.4
20260508133035 13 167 6.4 9.7 0.00 0.00 0.00 55 1012.1
20260508132533 13 303 4.8 6.4 0.00 0.00 0.00 53 1011.9
20260508132030 13 243 6.4 9.7 0.00 0.00 0.00 54 1012.1
20260508131525 13 280 6.4 6.4 0.00 0.00 0.00 54 1012.0
20260508131022 13 236 3.2 4.8 0.00 0.00 0.00 55 1012.1
20260508130519 13 207 6.4 6.4 0.00 0.00 0.00 55 1012.1
20260508130015 13 287 4.8 4.8 0.00 0.00 0.00 54 1012.2
20260508125510 13 199 4.8 4.8 0.00 0.00 0.00 56 1012.2
20260508125008 13 256 4.8 4.8 0.00 0.00 0.00 57 1012.1
20260508124506 13 281 4.8 4.8 0.00 0.00 0.00 56 1012.0
20260508124003 13 295 1.6 3.2 0.00 0.00 0.00 56 1011.9
20260508123502 12 301 3.2 3.2 0.00 0.00 0.00 60 1011.9
20260508122957 13 266 6.4 6.4 0.00 0.00 0.00 58 1012.2
20260508122455 12 267 3.2 3.2 0.00 0.00 0.00 60 1012.1
20260508121951 12 241 6.4 6.4 0.00 0.00 0.00 61 1012.3
20260508121450 11 295 6.4 6.4 0.00 0.00 0.00 64 1012.6
20260508120948 11 230 3.2 4.8 0.00 0.00 0.00 67 1012.5
20260508120445 12 262 4.8 4.8 0.00 0.00 0.00 65 1012.6
20260508115943 11 202 8.0 12.9 0.00 0.00 0.00 67 1012.6
20260508115440 11 237 4.8 4.8 0.00 0.00 0.00 67 1012.4
20260508114936 11 297 1.6 1.6 0.00 0.00 0.00 68 1012.2
20260508114434 11 281 1.6 3.2 0.00 0.00 0.00 68 1012.4
20260508113930 11 207 6.4 6.4 0.00 0.00 0.00 67 1012.1
20260508113428 11 280 3.2 4.8 0.00 0.00 0.00 68 1012.0
20260508112925 11 273 4.8 4.8 0.00 0.00 0.00 68 1012.2
20260508112422 11 238 3.2 4.8 0.00 0.00 0.00 68 1012.1
20260508111918 11 286 1.6 3.2 0.00 0.00 0.00 70 1012.0
20260508111415 10 295 3.2 3.2 0.00 0.00 0.00 72 1012.1
20260508110913 10 281 3.2 3.2 0.00 0.00 0.00 73 1011.9
20260508110410 10 303 1.6 1.6 0.00 0.00 0.00 73 1011.9
20260508105910 10 303 0.0 0.0 0.00 0.00 0.00 73 1011.7
20260508105406 10 291 0.0 1.6 0.00 0.00 0.00 74 1011.8
20260508104904 9 279 3.2 3.2 0.00 0.00 0.00 74 1011.7
20260508104401 9 287 1.6 1.6 0.00 0.00 0.00 74 1011.5
20260508103858 9 272 3.2 3.2 0.00 0.00 0.00 74 1011.5
20260508103354 10 283 3.2 3.2 0.00 0.00 0.00 73 1011.4
20260508102852 10 298 0.0 0.0 0.00 0.00 0.00 74 1011.4
20260508102350 10 281 1.6 1.6 0.00 0.00 0.00 74 1011.2
20260508101847 9 287 1.6 1.6 0.00 0.00 0.00 74 1011.4
20260508101344 9 271 1.6 1.6 0.00 0.00 0.00 74 1011.4
20260508100842 9 282 1.6 3.2 0.00 0.00 0.00 73 1011.4
20260508100341 10 254 3.2 3.2 0.00 0.00 0.00 73 1011.3
20260508095835 10 284 3.2 3.2 0.00 0.00 0.00 74 1011.3
20260508095333 9 217 3.2 3.2 0.00 0.00 0.00 74 1011.2
20260508094830 10 288 3.2 3.2 0.00 0.00 0.00 73 1011.0
20260508094327 10 294 3.2 3.2 0.00 0.00 0.00 73 1011.1
20260508093824 10 297 1.6 1.6 0.00 0.00 0.00 72 1011.0
20260508093322 10 297 3.2 4.8 0.00 0.00 0.00 72 1011.0
20260508092819 10 294 1.6 1.6 0.00 0.00 0.00 72 1011.0
20260508092317 10 272 3.2 4.8 0.00 0.00 0.00 71 1010.8
20260508091815 10 303 1.6 1.6 0.00 0.00 0.00 71 1010.8
20260508091311 9 305 1.6 1.6 0.00 0.00 0.00 72 1010.5
20260508090809 9 304 1.6 1.6 0.00 0.00 0.00 72 1010.6
20260508090307 9 303 0.0 0.0 0.00 0.00 0.00 73 1010.8
20260508085803 9 295 6.4 9.7 0.00 0.00 0.00 73 1010.8
20260508085300 9 291 6.4 11.3 0.00 0.00 0.00 71 1010.8
20260508084755 10 281 3.2 3.2 0.00 0.00 0.00 71 1010.7
20260508084253 10 284 3.2 4.8 0.00 0.00 0.00 71 1010.7
20260508083751 10 293 1.6 3.2 0.00 0.00 0.00 71 1010.8
20260508083248 10 288 3.2 4.8 0.00 0.00 0.00 71 1010.8
20260508082748 9 298 1.6 3.2 0.00 0.00 0.00 72 1010.8
20260508082246 9 299 3.2 4.8 0.00 0.00 0.00 71 1010.7
20260508081743 9 254 1.6 3.2 0.00 0.00 0.00 71 1010.9
20260508081239 9 295 3.2 4.8 0.00 0.00 0.00 69 1010.5
20260508080736 10 309 6.4 9.7 0.00 0.00 0.00 69 1010.5
20260508080235 10 285 6.4 9.7 0.00 0.00 0.00 68 1010.2
20260508075731 10 301 3.2 4.8 0.00 0.00 0.00 66 1010.0
20260508075228 10 303 6.4 6.4 0.00 0.00 0.00 65 1010.0
20260508074726 10 312 1.6 1.6 0.00 0.00 0.00 64 1009.9
20260508074223 10 307 3.2 3.2 0.00 0.00 0.00 63 1009.7
20260508073719 10 293 6.4 9.7 0.00 0.00 0.00 62 1009.8
20260508073218 10 11 4.8 6.4 0.00 0.00 0.00 61 1009.7
20260508072713 10 289 3.2 4.8 0.00 0.00 0.00 60 1009.8
20260508072210 10 296 1.6 3.2 0.00 0.00 0.00 59 1009.9
20260508071708 11 299 3.2 3.2 0.00 0.00 0.00 60 1009.9
20260508071206 11 298 3.2 4.8 0.00 0.00 0.00 59 1009.8
20260508070703 11 300 6.4 6.4 0.00 0.00 0.00 58 1009.8
20260508070202 11 296 3.2 3.2 0.00 0.00 0.00 59 1009.9
20260508065658 11 303 6.4 6.4 0.00 0.00 0.00 59 1009.9
20260508065156 11 305 8.0 12.9 0.00 0.00 0.00 60 1010.2
20260508064653 11 307 3.2 3.2 0.00 0.00 0.00 61 1010.0
20260508064152 11 286 9.7 12.9 0.00 0.00 0.00 61 1010.0
20260508063649 11 303 3.2 3.2 0.00 0.00 0.00 60 1009.8
20260508063147 12 261 4.8 4.8 0.00 0.00 0.00 58 1010.3
20260508062644 12 304 1.6 1.6 0.00 0.00 0.00 63 1009.8
20260508062140 12 301 3.2 3.2 0.00 0.00 0.00 74 1009.9
20260508061638 12 303 1.6 1.6 0.00 0.00 0.00 74 1009.8
20260508061135 12 308 3.2 3.2 0.00 0.00 0.00 78 1009.6
20260508060632 12 292 1.6 3.2 0.00 0.00 0.00 79 1009.7
20260508060129 12 289 3.2 3.2 0.00 0.00 0.00 79 1009.6
20260508055625 12 269 1.6 3.2 0.00 0.00 0.00 77 1009.2
20260508055122 12 306 1.6 1.6 0.00 0.00 0.00 76 1008.8
20260508054618 12 302 0.0 0.0 0.00 0.00 0.00 75 1008.4
20260508054116 12 302 0.0 0.0 0.00 0.00 0.00 74 1008.6
20260508053612 12 302 0.0 0.0 0.00 0.00 0.00 73 1008.4
20260508053111 12 302 0.0 0.0 0.00 0.00 0.00 73 1008.6
20260508052607 12 274 1.6 3.2 0.00 0.00 0.00 73 1008.6
20260508052104 12 297 0.0 0.0 0.00 0.00 0.00 73 1008.6
20260508051600 12 273 1.6 1.6 0.00 0.00 0.00 76 1008.6
20260508051056 12 289 1.6 1.6 0.00 0.00 0.00 75 1008.4
20260508050552 12 305 0.0 0.0 0.00 0.00 0.00 74 1008.8
20260508050050 12 264 0.0 0.0 0.00 0.00 0.00 75 1008.8
20260508045546 11 271 0.0 0.0 0.00 0.00 0.00 77 1008.5
20260508045044 12 300 0.0 0.0 0.00 0.00 0.00 76 1008.4
20260508044541 11 306 0.0 0.0 0.00 0.00 0.00 78 1008.4
20260508044037 11 307 0.0 0.0 0.00 0.00 0.00 78 1008.4
20260508043534 11 307 0.0 0.0 0.00 0.00 0.00 78 1008.2
20260508043031 11 300 0.0 0.0 0.00 0.00 0.00 77 1008.4
20260508042527 11 313 0.0 0.0 0.00 0.00 0.00 78 1008.3
20260508042025 11 307 0.0 0.0 0.00 0.00 0.00 77 1008.4
20260508041521 11 307 0.0 0.0 0.00 0.00 0.00 77 1008.3
20260508041018 11 334 0.0 0.0 0.00 0.00 0.00 76 1008.2
20260508040515 11 337 0.0 0.0 0.00 0.00 0.00 76 1008.3
20260508040012 11 324 0.0 0.0 0.00 0.00 0.00 77 1008.2
20260508035509 12 305 0.0 0.0 0.00 0.00 0.00 76 1008.6
20260508035006 12 308 0.0 0.0 0.00 0.00 0.00 76 1008.6
20260508034503 11 305 0.0 0.0 0.00 0.00 0.00 77 1008.6
20260508034000 11 308 0.0 0.0 0.00 0.00 0.00 76 1008.4
20260508033458 12 308 0.0 0.0 0.00 0.00 0.00 76 1008.4
20260508032955 12 303 0.0 0.0 0.00 0.00 0.00 74 1008.6
20260508032452 12 308 0.0 0.0 0.00 0.00 0.00 73 1008.9
20260508031949 12 303 0.0 0.0 0.00 0.00 0.00 74 1008.8
20260508031446 12 302 0.0 0.0 0.00 0.00 0.00 73 1008.7
20260508030942 12 311 0.0 0.0 0.00 0.00 0.00 74 1008.5
20260508030440 12 305 0.0 0.0 0.00 0.00 0.00 73 1008.5
20260508025937 12 308 1.6 3.2 0.00 0.00 0.00 73 1008.5
20260508025433 12 312 1.6 1.6 0.00 0.00 0.00 73 1008.5
20260508024930 12 308 0.0 0.0 0.00 0.00 0.00 72 1008.5
20260508024426 12 302 0.0 0.0 0.00 0.00 0.00 72 1008.6
20260508023923 13 305 1.6 1.6 0.00 0.00 0.00 70 1008.6
20260508023420 13 330 0.0 1.6 0.00 0.00 0.00 68 1008.5
20260508022917 13 297 0.0 0.0 0.00 0.00 0.00 66 1008.4
20260508022412 13 340 3.2 3.2 0.00 0.00 0.00 63 1008.6
20260508021909 13 333 1.6 1.6 0.00 0.00 0.00 60 1008.4
20260508021406 13 347 1.6 1.6 0.00 0.00 0.00 58 1008.4
20260508020902 14 305 0.0 0.0 0.00 0.00 0.00 56 1008.7
20260508020400 14 290 1.6 1.6 0.00 0.00 0.00 53 1008.5
20260508015857 15 323 1.6 3.2 0.00 0.00 0.00 51 1008.4
20260508015355 15 307 0.0 0.0 0.00 0.00 0.00 40 1008.3
20260508014851 15 314 0.0 1.6 0.00 0.00 0.00 39 1008.2
20260508014349 15 301 0.0 0.0 0.00 0.00 0.00 38 1008.0
20260508013844 15 304 3.2 3.2 0.00 0.00 0.00 37 1008.1
20260508013340 15 307 0.0 0.0 0.00 0.00 0.00 37 1008.4
20260508012838 15 298 0.0 0.0 0.00 0.00 0.00 37 1008.2
20260508012335 15 308 3.2 4.8 0.00 0.00 0.00 37 1008.2
20260508011833 15 301 1.6 3.2 0.00 0.00 0.00 37 1008.2
20260508011330 16 290 3.2 3.2 0.00 0.00 0.00 36 1008.2
20260508010827 15 297 1.6 3.2 0.00 0.00 0.00 36 1008.3
20260508010325 16 304 0.0 0.0 0.00 0.00 0.00 37 1007.9
20260508005822 16 300 0.0 0.0 0.00 0.00 0.00 37 1008.1
20260508005318 16 307 0.0 0.0 0.00 0.00 0.00 37 1008.0
20260508004815 16 296 1.6 1.6 0.00 0.00 0.00 36 1007.9
20260508004311 16 301 1.6 1.6 0.00 0.00 0.00 37 1007.6
20260508003807 16 296 3.2 3.2 0.00 0.00 0.00 36 1007.9
20260508003305 16 302 1.6 1.6 0.00 0.00 0.00 36 1007.7
20260508002801 16 297 1.6 1.6 0.00 0.00 0.00 35 1007.7
20260508002258 16 305 1.6 1.6 0.00 0.00 0.00 36 1007.6
20260508001754 16 288 3.2 4.8 0.00 0.00 0.00 36 1007.6
20260508001250 16 331 1.6 3.2 0.00 0.00 0.00 36 1007.7
20260508000746 16 297 1.6 3.2 0.00 0.00 0.00 35 1007.3
20260508000244 16 294 4.8 4.8 0.00 0.00 0.00 35 1007.5
20260507235740 16 301 0.0 0.0 0.00 0.00 0.00 36 1007.5
20260507235238 16 304 0.0 0.0 0.00 0.00 0.00 36 1007.2
20260507234734 16 301 1.6 1.6 0.00 0.00 0.00 35 1007.5
20260507234231 16 304 3.2 3.2 0.00 0.00 0.00 35 1007.3
20260507233727 16 300 0.0 0.0 0.00 0.00 0.00 35 1007.4
20260507233225 16 286 3.2 4.8 0.00 0.00 0.00 35 1007.1
20260507232722 17 306 1.6 1.6 0.00 0.00 0.00 34 1006.9
20260507232219 17 298 4.8 4.8 0.00 0.00 0.00 34 1007.1
20260507231716 17 292 1.6 3.2 0.00 0.00 0.00 34 1006.8
20260507231213 17 279 3.2 4.8 0.00 0.00 0.00 34 1007.1
20260507230710 16 294 3.2 4.8 0.00 0.00 0.00 34 1007.0
20260507230207 16 304 4.8 6.4 0.00 0.00 0.00 34 1007.1
20260507225706 17 263 3.2 3.2 0.00 0.00 0.00 35 1007.1
20260507225203 17 268 6.4 6.4 0.00 0.00 0.00 34 1007.1
20260507224659 17 301 1.6 1.6 0.00 0.00 0.00 34 1006.9
20260507224155 17 301 4.8 6.4 0.00 0.00 0.00 33 1006.9
20260507223652 17 277 1.6 3.2 0.00 0.00 0.00 33 1007.1
20260507223149 17 299 3.2 3.2 0.00 0.00 0.00 32 1006.9
20260507222646 17 303 6.4 9.7 0.00 0.00 0.00 31 1006.9
20260507222142 18 289 4.8 6.4 0.00 0.00 0.00 32 1007.0
20260507221638 18 253 3.2 4.8 0.00 0.00 0.00 32 1006.9
20260507221135 18 284 3.2 3.2 0.00 0.00 0.00 33 1006.9
20260507220632 18 304 6.4 9.7 0.00 0.00 0.00 33 1006.9
20260507220130 18 298 4.8 6.4 0.00 0.00 0.00 33 1007.1
20260507215626 18 253 6.4 6.4 0.00 0.00 0.00 33 1006.7
20260507215123 17 279 4.8 4.8 0.00 0.00 0.00 33 1007.1
20260507214620 17 278 3.2 3.2 0.00 0.00 0.00 34 1007.1
20260507214117 18 297 3.2 3.2 0.00 0.00 0.00 33 1006.9
20260507213613 18 187 4.8 6.4 0.00 0.00 0.00 34 1006.9
20260507213110 18 282 1.6 3.2 0.00 0.00 0.00 33 1006.8
20260507212606 17 283 3.2 3.2 0.00 0.00 0.00 34 1006.6
20260507212103 17 233 4.8 6.4 0.00 0.00 0.00 35 1006.9
20260507211600 18 270 3.2 4.8 0.00 0.00 0.00 34 1006.7
20260507211055 18 297 6.4 6.4 0.00 0.00 0.00 34 1006.4
20260507210553 18 271 3.2 4.8 0.00 0.00 0.00 33 1006.6
20260507210050 18 303 1.6 3.2 0.00 0.00 0.00 33 1006.4
20260507205546 18 269 6.4 6.4 0.00 0.00 0.00 34 1006.7
20260507205043 18 306 4.8 4.8 0.00 0.00 0.00 35 1006.7
20260507204539 19 270 3.2 3.2 0.00 0.23 0.23 33 1006.6
20260507204037 18 306 3.2 4.8 0.00 0.23 0.23 33 1006.7
20260507203535 18 286 1.6 1.6 0.00 0.23 0.23 33 1006.8
20260507203032 18 292 3.2 3.2 0.00 0.23 0.23 32 1006.8
20260507202527 18 242 4.8 6.4 0.00 0.23 0.23 33 1006.9
20260507202024 18 247 3.2 4.8 0.00 0.23 0.23 34 1006.9
20260507201520 18 289 1.6 3.2 0.00 0.23 0.23 33 1006.7
20260507201016 18 197 6.4 6.4 0.00 0.23 0.23 33 1006.7
20260507200511 18 294 6.4 11.3 0.00 0.23 0.23 33 1006.8
20260507200008 17 295 4.8 9.7 0.00 0.23 0.23 34 1006.8
20260507195505 17 250 3.2 4.8 0.00 0.23 0.23 35 1006.8
20260507195003 18 311 1.6 3.2 0.00 0.23 0.23 34 1006.8
20260507194459 18 277 6.4 6.4 0.00 0.23 0.23 33 1007.0
20260507193955 17 194 8.0 9.7 0.00 0.23 0.23 33 1007.0
20260507193452 17 294 4.8 4.8 0.00 0.23 0.23 34 1007.3
20260507192949 17 287 11.3 17.7 0.00 0.23 0.23 32 1007.0
20260507192444 17 294 8.0 11.3 0.00 0.23 0.23 33 1007.0
20260507191942 17 270 1.6 3.2 0.00 0.23 0.23 34 1007.0
20260507191438 17 296 4.8 6.4 0.00 0.23 0.23 35 1007.3
20260507190935 18 291 6.4 6.4 0.00 0.23 0.23 34 1007.2
20260507190432 17 246 4.8 6.4 0.00 0.23 0.23 36 1007.4
20260507185931 17 291 0.0 0.0 0.00 0.23 0.23 33 1007.7
20260507185428 17 299 9.7 12.9 0.00 0.23 0.23 34 1007.6
20260507184924 17 299 6.4 6.4 0.00 0.23 0.23 33 1007.4
20260507184422 18 314 6.4 6.4 0.00 0.23 0.23 33 1007.6
20260507183920 17 308 3.2 3.2 0.00 0.23 0.23 34 1007.7
20260507183416 17 303 1.6 1.6 0.00 0.23 0.23 34 1007.6
20260507182914 17 305 1.6 1.6 0.00 0.23 0.23 34 1007.7
20260507182409 17 300 3.2 4.8 0.00 0.23 0.23 34 1007.7
20260507181906 16 204 3.2 6.4 0.00 0.23 0.23 35 1007.8
20260507181402 16 278 6.4 6.4 0.00 0.23 0.23 34 1007.9
20260507180859 16 303 6.4 6.4 0.00 0.23 0.23 34 1007.8
20260507180355 16 305 9.7 11.3 0.00 0.23 0.23 34 1008.2
20260507175852 16 184 3.2 4.8 0.00 0.23 0.23 34 1008.3
20260507175349 16 278 4.8 4.8 0.00 0.23 0.23 33 1008.4
20260507174846 16 138 6.4 9.7 0.00 0.23 0.23 34 1008.5
20260507174343 17 313 4.8 4.8 0.00 0.23 0.23 33 1008.3
20260507173841 16 214 3.2 6.4 0.00 0.23 0.23 35 1008.2
20260507173338 17 280 4.8 6.4 0.00 0.23 0.23 34 1008.4
20260507172834 17 274 4.8 4.8 0.00 0.23 0.23 36 1008.4
20260507172331 16 301 4.8 4.8 0.00 0.23 0.23 35 1008.5
20260507171826 17 282 6.4 6.4 0.00 0.23 0.23 33 1008.6
20260507171324 16 306 1.6 3.2 0.00 0.23 0.23 35 1008.5
20260507170821 16 289 8.0 9.7 0.00 0.23 0.23 34 1008.7
20260507170317 16 290 8.0 11.3 0.00 0.23 0.23 34 1008.8
20260507165813 16 288 8.0 9.7 0.00 0.23 0.23 36 1008.9
20260507165309 16 313 1.6 3.2 0.00 0.23 0.23 36 1009.0
20260507164805 16 237 8.0 9.7 0.00 0.23 0.23 34 1008.9